Weather History for KHKY - March, 2014

Change the Weather History Date:

Monday, March 17, 2014

  Actual Average Record
Temperature  
Mean Temperature 34 °F -  
Max Temperature 37 °F 59 °F 79 °F (1982)
Min Temperature 30 °F 35 °F 21 °F (1988)
Degree Days  
Heating Degree Days 32    
Moisture  
Dew Point 30 °F    
Average Humidity 89    
Maximum Humidity 93    
Minimum Humidity 81    
Precipitation  
Precipitation 0.39 in - - ()
Sea Level Pressure  
Sea Level Pressure 29.86 in    
Wind  
Wind Speed 8 mph (NE)    
Max Wind Speed 13 mph    
Max Gust Speed 20 mph    
Visibility 8 miles    
Events Rain    
Averages and records for this station are not official NWS values.
T = Trace of Precipitation, MM = Missing Value Source: NWS Daily Summary

Daily Weather History Graph

Daily Weather History Graph

Search for Another Location

Airport or City:

Trip Planner

Search our weather history database for the weather conditions in past years. The results will help you decide how hot, cold, wet, or windy it might be!

Date:

Astronomy

Mar. 17, 2014 Rise Set
Actual Time 7:33 AM EDT 7:34 PM EDT
Civil Twilight 7:07 AM EDT 8:00 PM EDT
Nautical Twilight 6:38 AM EDT 8:29 PM EDT
Astronomical Twilight 6:08 AM EDT 8:59 PM EDT
Moon 8:46 PM EDT (3/17) 7:50 AM EDT (3/17)
Length of Visible Light 12h 52m
Length of Day
12h 01m
Full, 99% of the Moon is Illuminated
Mar 17
Full
Mar 23
Last Quarter
Mar 30
New
Apr 7
First Quarter
Apr 15
Full

Hourly Weather History & Observations

Time (EDT) Temp. Windchill Dew Point Humidity Pressure Visibility Wind Dir Wind Speed Gust Speed Precip Events Conditions
12:53 AM 37.0 °F 31.6 °F 35.1 °F 93% 29.82 in 7.0 mi NNE 6.9 mph - 0.03 in Rain Light Rain
1:24 AM 35.6 °F 28.0 °F 33.8 °F 93% 29.84 in 5.0 mi NNE 10.4 mph 19.6 mph 0.00 in Rain Light Rain
1:44 AM 35.6 °F 31.7 °F 33.8 °F 93% 29.85 in 2.5 mi NNE 4.6 mph - 0.02 in Rain Light Rain
1:53 AM 36.0 °F 28.5 °F 34.0 °F 93% 29.82 in 2.0 mi NE 10.4 mph 18.4 mph 0.06 in Rain Rain
2:02 AM 35.6 °F 28.6 °F 33.8 °F 93% 29.83 in 7.0 mi NE 9.2 mph 18.4 mph 0.00 in Rain Light Rain
2:09 AM 35.6 °F 29.9 °F 33.8 °F 93% 29.84 in 9.0 mi NE 6.9 mph - 0.00 in   Overcast
2:17 AM 35.6 °F 28.6 °F 33.8 °F 93% 29.83 in 10.0 mi NNE 9.2 mph - 0.00 in   Overcast
2:42 AM 35.6 °F 28.6 °F 32.0 °F 87% 29.83 in 10.0 mi NNE 9.2 mph - 0.00 in   Overcast
2:53 AM 35.1 °F 27.9 °F 32.0 °F 89% 29.82 in 10.0 mi NNE 9.2 mph - 0.00 in   Overcast
3:37 AM 33.8 °F 27.0 °F 30.2 °F 87% 29.82 in 10.0 mi NE 8.1 mph - N/A   Overcast
3:53 AM 34.0 °F 27.2 °F 30.9 °F 89% 29.80 in 8.0 mi NE 8.1 mph - N/A   Overcast
4:53 AM 33.1 °F 23.9 °F 30.9 °F 92% 29.80 in 5.0 mi NE 12.7 mph - N/A   Overcast
5:53 AM 33.1 °F 26.9 °F 30.9 °F 92% 29.80 in 7.0 mi NE 6.9 mph - N/A   Overcast
6:53 AM 33.1 °F 26.9 °F 30.0 °F 89% 29.81 in 8.0 mi NE 6.9 mph - 0.01 in Rain Light Rain
7:53 AM 33.1 °F 27.7 °F 30.9 °F 92% 29.82 in 5.0 mi ENE 5.8 mph - 0.02 in Rain Light Rain
8:53 AM 33.1 °F 26.1 °F 30.9 °F 92% 29.82 in 6.0 mi NE 8.1 mph - 0.00 in   Overcast
9:53 AM 33.1 °F 27.7 °F 30.0 °F 89% 29.86 in 5.0 mi NNE 5.8 mph - 0.01 in Rain Light Rain
10:18 AM 32.0 °F 24.8 °F 30.2 °F 93% 29.86 in 3.0 mi NE 8.1 mph - 0.05 in Rain Light Freezing Rain
10:25 AM 33.8 °F 27.0 °F 30.2 °F 87% 29.87 in 2.5 mi NNE 8.1 mph - 0.07 in Rain Light Freezing Rain
10:28 AM 33.8 °F 29.6 °F 30.2 °F 87% 29.87 in 3.0 mi NNE 4.6 mph - 0.07 in Rain Light Freezing Rain
10:49 AM 33.8 °F 27.7 °F 30.2 °F 87% 29.88 in 3.0 mi ENE 6.9 mph - 0.13 in Rain Light Freezing Rain
10:53 AM 32.0 °F 25.6 °F 30.0 °F 92% 29.87 in 3.0 mi ENE 6.9 mph - 0.15 in Rain Light Freezing Rain
11:19 AM 33.8 °F 27.7 °F 30.2 °F 87% 29.87 in 6.0 mi NE 6.9 mph - 0.04 in Rain Light Freezing Rain
11:28 AM 33.8 °F 26.4 °F 30.2 °F 87% 29.87 in 5.0 mi NE 9.2 mph - 0.04 in Rain Light Freezing Rain
11:53 AM 33.1 °F 27.7 °F 30.0 °F 89% 29.87 in 8.0 mi ENE 5.8 mph - 0.05 in Rain Light Freezing Rain
12:05 PM 33.8 °F 27.7 °F 30.2 °F 87% 29.87 in 3.0 mi NE 6.9 mph - 0.02 in Rain Light Freezing Rain
12:13 PM 33.8 °F 27.0 °F 28.4 °F 81% 29.87 in 4.0 mi NE 8.1 mph - 0.03 in Rain Light Freezing Rain
12:35 PM 33.8 °F 27.7 °F 32.0 °F 93% 29.88 in 8.0 mi NE 6.9 mph - 0.05 in Rain Light Rain
12:53 PM 33.1 °F 25.5 °F 30.0 °F 89% 29.87 in 10.0 mi NE 9.2 mph - 0.06 in   Overcast
1:06 PM 33.8 °F 25.8 °F 30.2 °F 87% 29.85 in 10.0 mi NE 10.4 mph - 0.00 in Rain Light Rain
1:28 PM 33.8 °F 28.6 °F 28.4 °F 81% 29.88 in 10.0 mi NNE 5.8 mph - 0.00 in Rain Light Rain
1:53 PM 32.0 °F 24.8 °F 28.9 °F 88% 29.87 in 10.0 mi NE 8.1 mph - 0.00 in   Overcast
2:45 PM 33.8 °F 26.4 °F 28.4 °F 81% 29.86 in 10.0 mi NE 9.2 mph - 0.00 in   Overcast
2:53 PM 32.0 °F 24.8 °F 28.9 °F 88% 29.86 in 10.0 mi NE 8.1 mph - 0.00 in   Overcast
3:49 PM 33.8 °F 25.8 °F 28.4 °F 81% 29.86 in 10.0 mi ENE 10.4 mph - N/A   Overcast
3:53 PM 32.0 °F 23.6 °F 28.0 °F 85% 29.86 in 10.0 mi ENE 10.4 mph - N/A   Overcast
4:53 PM 32.0 °F 25.6 °F 28.0 °F 85% 29.84 in 10.0 mi ENE 6.9 mph - N/A   Overcast
5:29 PM 32.0 °F 24.8 °F 28.4 °F 87% 29.84 in 10.0 mi ENE 8.1 mph - 0.00 in   Overcast
5:53 PM 32.0 °F 24.8 °F 28.0 °F 85% 29.86 in 10.0 mi ENE 8.1 mph - 0.00 in   Overcast
6:14 PM 32.0 °F 24.8 °F 28.4 °F 87% 29.84 in 10.0 mi ENE 8.1 mph - 0.00 in   Overcast
6:53 PM 30.9 °F 25.2 °F 28.0 °F 89% 29.88 in 10.0 mi ENE 5.8 mph - 0.00 in   Overcast
7:16 PM 32.0 °F 26.4 °F 28.4 °F 87% 29.88 in 8.0 mi ENE 5.8 mph - 0.00 in Rain Light Freezing Rain
7:42 PM 30.2 °F 21.3 °F 28.4 °F 93% 29.88 in 8.0 mi NE 10.4 mph - 0.00 in Rain Light Freezing Rain
7:53 PM 30.9 °F 23.5 °F 28.0 °F 89% 29.88 in 8.0 mi ENE 8.1 mph - 0.00 in Rain Light Freezing Rain
8:03 PM 30.2 °F 22.6 °F 28.4 °F 93% 29.88 in 10.0 mi NE 8.1 mph - 0.00 in   Overcast
8:27 PM 30.2 °F 23.4 °F 28.4 °F 93% 29.88 in 7.0 mi NE 6.9 mph - 0.00 in   Overcast
8:34 PM 30.2 °F 22.6 °F 28.4 °F 93% 29.89 in 6.0 mi ENE 8.1 mph - 0.00 in Rain Light Freezing Rain
8:53 PM 30.9 °F 25.2 °F 28.0 °F 89% 29.92 in 10.0 mi NE 5.8 mph - 0.00 in Rain Light Freezing Rain
9:04 PM 30.2 °F 24.3 °F 28.4 °F 93% 29.92 in 10.0 mi ENE 5.8 mph - 0.00 in   Overcast
9:53 PM 30.9 °F 23.5 °F 28.0 °F 89% 29.92 in 10.0 mi NNE 8.1 mph - 0.00 in   Overcast
10:17 PM 30.2 °F 23.4 °F 28.4 °F 93% 29.94 in 10.0 mi ENE 6.9 mph - 0.00 in   Overcast
10:53 PM 30.9 °F 24.3 °F 27.0 °F 85% 29.92 in 10.0 mi NE 6.9 mph - 0.00 in   Overcast
11:07 PM 30.2 °F 23.4 °F 28.4 °F 93% 29.91 in 7.0 mi NE 6.9 mph - 0.00 in   Overcast
11:14 PM 30.2 °F 24.3 °F 28.4 °F 93% 29.94 in 7.0 mi North 5.8 mph - 0.00 in   Overcast
11:32 PM 30.2 °F 22.6 °F 28.4 °F 93% 29.94 in 10.0 mi ENE 8.1 mph - 0.00 in   Overcast
11:53 PM 30.9 °F 25.2 °F 27.0 °F 85% 29.95 in 10.0 mi NE 5.8 mph - 0.00 in   Overcast